Weather reports worldwide

Advertisment
Valencia de Alcantara, Spain (8260): temperature & dewpoint: 17.10.2020 01:00:00 - 23.10.2020 01:00:00 (CEST)Valencia de Alcantara, Spain (8260): wind speed & gusts: 17.10.2020 01:00:00 - 23.10.2020 01:00:00 (CEST)Valencia de Alcantara, Spain (8260): wind direction: 17.10.2020 01:00:00 - 23.10.2020 01:00:00 (CEST)Valencia de Alcantara, Spain (8260): reduced air pressure: 17.10.2020 01:00:00 - 23.10.2020 01:00:00 (CEST)Valencia de Alcantara, Spain (8260): visibility: 17.10.2020 01:00:00 - 23.10.2020 01:00:00 (CEST)Valencia de Alcantara, Spain (8260): sunshine duration: 17.10.2020 01:00:00 - 23.10.2020 01:00:00 (CEST)Valencia de Alcantara, Spain (8260): precipitation: 17.10.2020 01:00:00 - 23.10.2020 01:00:00 (CEST)
Date & Time tt [°C] td [°C] ff [km/h] ff [kn] fx [km/h] fx [kn] dd ppp [hPa] vv [km] sd [min] rr [mm]
23.10.2020 01:00:00 - - - - - - - - - - -
23.10.2020 00:00:00 11,9 9,0 8 4 16 9 SW 1017,7 20 0 0,0
22.10.2020 23:00:00 12,4 8,7 10 5 20 11 SW 1016,6 20 0 0,0
22.10.2020 22:00:00 12,0 9,0 6 4 14 8 SSW 1015,9 20 0 0,0
22.10.2020 21:00:00 13,2 9,3 8 4 28 15 SSW 1015,1 20 0 0,0
22.10.2020 20:00:00 14,8 10,6 14 8 35 19 W 1014,0 11 0 -
22.10.2020 19:00:00 16,6 10,2 13 7 23 12 W 1012,6 20 0 0,0
22.10.2020 18:00:00 16,9 10,0 13 7 29 16 W 1011,9 20 0 0,0
22.10.2020 17:00:00 18,0 8,8 16 9 28 15 SW 1011,4 20 3 0,0
22.10.2020 16:00:00 18,1 9,7 14 8 24 13 SW 1011,1 20 34 0,0
22.10.2020 15:00:00 17,1 9,8 11 6 26 14 SW 1011,5 20 21 0,0
22.10.2020 14:00:00 16,9 9,8 13 7 22 12 SW 1012,1 20 39 -
22.10.2020 13:00:00 17,0 10,6 11 6 27 14 S 1012,4 20 55 0,0
22.10.2020 12:00:00 15,8 11,0 10 5 20 11 SSW 1012,5 20 48 0,0
22.10.2020 11:00:00 - - - - - - - - - - -
22.10.2020 10:00:00 - - - - - - - - - - -
22.10.2020 09:00:00 12,2 11,1 1 1 11 6 WNW 1011,3 20 0 0,0
22.10.2020 08:00:00 12,6 11,4 8 4 17 9 S 1010,9 20 0 -
22.10.2020 07:00:00 12,7 11,2 9 5 15 8 S 1010,7 20 0 0,0
22.10.2020 06:00:00 12,6 11,0 8 4 15 8 S 1010,5 20 0 0,0
22.10.2020 05:00:00 12,4 10,8 7 4 14 8 SSE 1010,7 20 0 0,0
22.10.2020 04:00:00 13,0 11,1 9 5 16 9 S 1011,0 20 0 0,0
22.10.2020 03:00:00 12,9 11,8 6 3 12 7 S 1010,9 20 0 0,0
22.10.2020 02:00:00 13,6 12,1 8 4 14 8 S 1010,9 20 0 -
22.10.2020 01:00:00 13,8 12,3 7 4 20 11 S 1010,8 20 0 0,2
22.10.2020 00:00:00 14,1 12,6 9 5 19 10 S 1011,0 20 0 0,0
21.10.2020 23:00:00 14,3 13,1 9 5 15 8 SSE 1010,5 15 0 0,2
21.10.2020 22:00:00 14,2 13,0 6 4 10 5 SE 1010,2 20 0 0,0
21.10.2020 21:00:00 14,3 12,6 8 4 15 8 SSW 1010,0 20 0 0,8
21.10.2020 20:00:00 14,8 12,3 11 6 25 13 SSW 1009,4 7 0 -
21.10.2020 19:00:00 16,6 11,1 11 6 32 17 S 1008,7 20 0 0,0
21.10.2020 18:00:00 17,4 10,8 21 11 39 21 S 1008,1 20 0 0,0
21.10.2020 17:00:00 18,5 11,1 15 8 36 20 S 1007,5 20 5 0,0
21.10.2020 16:00:00 17,9 11,7 13 7 35 19 S 1007,7 20 32 0,0
21.10.2020 15:00:00 17,2 11,7 16 9 40 22 S 1008,3 20 14 0,0
21.10.2020 14:00:00 17,8 11,1 16 8 36 19 S 1008,2 20 50 -
21.10.2020 13:00:00 16,7 11,2 20 11 36 20 S 1008,5 20 36 0,2
21.10.2020 12:00:00 15,7 11,2 21 11 32 18 S 1008,6 20 56 0,2
21.10.2020 11:00:00 14,8 11,2 13 7 25 13 S 1008,2 20 31 0,0
21.10.2020 10:00:00 14,0 11,6 11 6 20 11 S 1007,7 20 0 0,0
21.10.2020 09:00:00 13,6 12,0 8 5 26 14 S 1006,8 20 0 0,2
21.10.2020 08:00:00 14,1 11,6 11 6 24 13 S 1006,1 20 0 -
21.10.2020 07:00:00 13,8 11,9 11 6 25 14 S 1005,4 20 0 0,2
21.10.2020 06:00:00 13,9 12,1 9 5 29 16 S 1004,8 4,6 0 0,0
21.10.2020 05:00:00 14,1 11,8 14 8 38 20 S 1004,4 20 0 0,0
21.10.2020 04:00:00 14,4 11,3 22 12 42 23 S 1004,2 20 0 0,0
21.10.2020 03:00:00 14,1 12,0 17 9 46 25 S 1004,0 20 0 1,2
21.10.2020 02:00:00 13,5 12,7 13 7 39 21 SSW 1003,6 20 0 -
21.10.2020 01:00:00 13,4 11,7 16 9 42 23 SSW 1003,3 3,4 0 3,2
21.10.2020 00:00:00 14,6 11,8 19 10 46 25 SSW 1002,3 20 0 0,0
20.10.2020 23:00:00 14,2 12,1 18 10 31 17 SSW 1000,4 20 0 1,0
20.10.2020 22:00:00 14,6 12,6 18 10 40 21 SSW 999,6 7 0 2,4
20.10.2020 21:00:00 15,3 13,9 17 9 56 30 SW 998,5 9 0 7,8
20.10.2020 20:00:00 16,7 14,7 19 10 44 24 S 996,8 11 0 -
20.10.2020 19:00:00 16,6 15,8 16 9 37 20 S 997,3 1,7 0 15,4
20.10.2020 18:00:00 16,5 15,7 20 11 84 46 S 997,8 3,2 0 20,4
20.10.2020 17:00:00 17,2 16,0 40 22 80 43 SSE 996,6 3,7 0 8,2
20.10.2020 16:00:00 17,8 16,6 40 22 88 47 SSE 997,5 2,1 0 7,0
20.10.2020 15:00:00 17,5 16,6 40 22 72 39 SSE 997,6 2,8 0 14,2
20.10.2020 14:00:00 16,2 15,5 13 7 31 17 SE 1001,0 1,7 0 -
20.10.2020 13:00:00 15,7 14,7 13 7 28 15 ESE 1003,9 3,2 0 5,6
20.10.2020 12:00:00 15,9 14,4 6 4 23 13 ESE 1005,7 2,8 0 1,8
20.10.2020 11:00:00 15,9 14,9 13 7 23 12 ESE 1007,2 13 0 0,8
20.10.2020 10:00:00 15,7 14,6 12 6 23 12 SSE 1007,6 18 0 0,0
20.10.2020 09:00:00 15,8 14,3 9 5 16 8 SSE 1007,3 20 0 0,0
20.10.2020 08:00:00 15,9 14,9 4 2 15 8 S 1007,6 14 0 -
20.10.2020 07:00:00 16,0 15,2 6 3 15 8 WSW 1007,9 20 0 0,0
20.10.2020 06:00:00 16,6 15,8 5 3 14 8 WSW 1007,9 15 0 0,6
20.10.2020 05:00:00 17,1 16,1 7 4 55 30 W 1007,5 3,4 0 1,0
20.10.2020 04:00:00 17,1 16,0 28 15 60 32 SSE 1007,0 12 0 1,6
20.10.2020 03:00:00 16,8 15,7 29 16 59 32 SSE 1007,0 6 0 4,4
20.10.2020 02:00:00 16,7 15,5 27 14 66 36 SSE 1007,7 4,5 0 -
20.10.2020 01:00:00 16,5 15,3 27 15 62 33 SSE 1008,7 17 0 2,0
20.10.2020 00:00:00 16,4 15,1 25 13 56 30 SSE 1008,9 13 0 1,2
19.10.2020 23:00:00 16,4 13,5 26 14 53 29 SSE 1010,0 20 0 0,2
19.10.2020 22:00:00 17,4 12,7 28 15 54 29 SSE 1009,7 20 0 0,0
19.10.2020 21:00:00 17,5 12,0 29 16 54 29 SSE 1009,9 20 0 0,0
19.10.2020 20:00:00 17,1 12,4 22 12 41 22 SSE 1010,0 20 0 -
19.10.2020 19:00:00 17,8 12,2 20 11 41 22 SSE 1010,6 18 0 0,2
19.10.2020 18:00:00 18,9 11,4 16 9 49 26 S 1011,0 19 0 0,2
19.10.2020 17:00:00 21,6 7,8 24 13 49 26 S 1010,5 20 0 0,0
19.10.2020 16:00:00 22,2 5,1 21 11 50 27 SSE 1010,6 20 0 0,0
19.10.2020 15:00:00 21,7 3,8 24 13 54 29 SSE 1011,3 20 19 0,0
19.10.2020 14:00:00 22,2 2,3 22 12 59 32 SSE 1012,2 20 60 -
19.10.2020 13:00:00 19,9 1,3 22 12 45 25 SSE 1013,3 14 51 0,0
19.10.2020 12:00:00 18,5 1,5 16 9 34 18 SE 1014,1 17 60 0,0
19.10.2020 11:00:00 16,0 2,7 12 7 26 14 ESE 1014,8 20 58 0,0
19.10.2020 10:00:00 13,5 1,5 14 8 22 12 ESE 1015,0 20 0 0,0
19.10.2020 09:00:00 12,0 1,1 6 4 16 9 SSE 1014,9 20 0 0,0
19.10.2020 08:00:00 12,9 1,3 9 5 21 12 SE 1015,0 20 0 -
19.10.2020 07:00:00 13,9 0,9 15 8 23 12 SSE 1015,0 20 0 0,0
19.10.2020 06:00:00 14,6 1,5 12 6 21 12 S 1015,0 20 0 0,0
19.10.2020 05:00:00 14,7 1,9 9 5 18 10 S 1014,7 20 0 0,0
19.10.2020 04:00:00 15,8 2,3 10 5 19 10 SSE 1014,8 20 0 0,0
19.10.2020 03:00:00 15,3 1,1 3 2 13 7 S 1015,5 20 0 0,0
19.10.2020 02:00:00 16,6 1,1 6 3 15 8 SE 1015,5 20 0 -
19.10.2020 01:00:00 17,7 1,3 11 6 21 11 SSE 1015,6 20 0 0,0
19.10.2020 00:00:00 17,6 -0,3 12 6 24 13 SSE 1016,1 20 0 0,0
18.10.2020 23:00:00 19,2 -0,7 17 9 29 15 ESE 1015,6 20 0 0,0
18.10.2020 22:00:00 18,9 -0,5 11 6 19 10 SE 1015,7 20 0 0,0
18.10.2020 21:00:00 19,0 -1,0 8 5 14 8 SE 1015,8 20 0 0,0
18.10.2020 20:00:00 20,5 -0,7 10 5 22 12 ESE 1015,4 20 0 -
18.10.2020 19:00:00 22,4 -1,7 15 8 29 15 ESE 1015,0 20 0 0,0
18.10.2020 18:00:00 23,1 -1,2 15 8 35 19 ESE 1015,2 20 0 0,0
18.10.2020 17:00:00 23,3 -1,0 16 9 36 20 E 1015,5 20 4 0,0
18.10.2020 16:00:00 - - - - - - - - - - -
18.10.2020 15:00:00 - - - - - - - - - - -
18.10.2020 14:00:00 - - - - - - - - - - -
18.10.2020 13:00:00 - - - - - - - - - - -
18.10.2020 12:00:00 - - - - - - - - - - -
18.10.2020 11:00:00 - - - - - - - - - - -
18.10.2020 10:00:00 - - - - - - - - - - -
18.10.2020 09:00:00 - - - - - - - - - - -
18.10.2020 08:00:00 8,1 1,9 4 2 10 5 SSW 1019,6 20 0 -
18.10.2020 07:00:00 11,6 2,1 7 4 14 8 SSE 1019,0 20 0 0,0
18.10.2020 06:00:00 8,8 1,9 6 3 9 5 S 1018,8 20 0 0,0
18.10.2020 05:00:00 8,6 1,3 5 3 9 5 SSW 1019,2 20 0 0,0
18.10.2020 04:00:00 8,9 1,3 5 3 11 6 SSW 1019,5 20 0 0,0
18.10.2020 03:00:00 9,5 1,5 9 5 11 6 SSW 1019,5 20 0 0,0
18.10.2020 02:00:00 9,8 1,5 9 5 12 6 SSW 1019,4 20 0 -
18.10.2020 01:00:00 10,4 0,9 7 4 11 6 S 1019,4 20 0 0,0
18.10.2020 00:00:00 11,0 1,1 7 4 10 6 SSW 1019,2 20 0 0,0
17.10.2020 23:00:00 - - - - - - - - - - -
17.10.2020 22:00:00 12,8 1,7 7 4 9 5 SSW 1018,5 20 0 0,0
17.10.2020 21:00:00 15,6 2,1 6 3 8 4 SSW 1017,9 20 0 0,0
17.10.2020 20:00:00 19,1 1,5 3 1 12 7 WSW 1016,5 20 10 -
17.10.2020 19:00:00 21,3 2,1 6 4 14 8 SSE 1015,5 20 0 0,0
17.10.2020 18:00:00 21,3 2,5 5 3 14 7 NE 1015,4 20 0 0,0
17.10.2020 17:00:00 21,2 2,5 7 4 17 9 E 1015,5 20 13 0,0
17.10.2020 16:00:00 20,8 3,4 5 3 14 7 WSW 1015,7 20 60 0,0
17.10.2020 15:00:00 19,7 3,8 5 3 15 8 E 1016,3 20 60 0,0
17.10.2020 14:00:00 18,2 3,9 6 3 16 8 WNW 1017,2 20 60 -
17.10.2020 13:00:00 17,2 3,8 8 4 15 8 NNW 1017,6 20 60 0,0
17.10.2020 12:00:00 14,8 4,1 5 3 10 5 NNW 1017,9 20 60 0,0
17.10.2020 11:00:00 12,0 3,8 6 4 12 7 NNW 1018,3 20 59 0,0
17.10.2020 10:00:00 8,6 2,9 8 5 13 7 SW 1018,5 20 0 0,0
17.10.2020 09:00:00 - - - - - - - - - - -
17.10.2020 08:00:00 - - - - - - - - - - -
17.10.2020 07:00:00 - - - - - - - - - - -
17.10.2020 06:00:00 - - - - - - - - - - -
17.10.2020 05:00:00 7,3 1,3 7 4 10 5 S 1017,6 20 0 0,0
17.10.2020 04:00:00 7,7 1,1 7 4 11 6 SSW 1017,7 20 0 0,0
17.10.2020 03:00:00 8,1 1,3 8 4 10 6 SSW 1017,8 20 0 0,0
17.10.2020 02:00:00 8,5 1,3 8 4 11 6 SSW 1018,0 20 0 -
17.10.2020 01:00:00 9,2 1,3 6 3 9 5 S 1017,9 20 0 0,0

tt = temperature
td = dewpoint
ff = wind speed
fx = gusts
dd = wind direction
ppp = reduced air pressure
vv = visibility
sd = sunshine duration
rr = precipitation

Next stations